Вернуться в каталог

KUIPER-00164

АктивенСвязьLEO
NORAD 67134·PAYLOAD·🇺🇸 United States

Запущен Dec 15, 2025 с Cape Canaveral Space Force Station

Loading…

Ближайшие Пролёты (ближайшие 24 часа)

TLE

СвежийSource: CelesTrak SupGP

Эпоха: Sep 14, 2026, 19:46 UTC

1 67134C 25301B   26257.82373843  .00000662  00000+0  86665-4 0  2577
2 67134  51.9031 311.7954 0000379  71.7693 195.4707 14.79927652    10

Отслеживайте KUIPER-00164 в реальном времени с AllMySat

Download on the App Store